Location: Killam
(52.7910°N, 111.8608°W)
Time: 21:09:57
(UTC+00:00)

Vanguard 2 Rocket - Pass Details

Date: 21 February 2026
Orbit: 553 x 3286 km, 32.9° (Epoch: 8 March)

Event Time Altitude Azimuth Distance (km) Brightness Sun altitude
Rises 20:52:48 0° 247° (WSW) 7,252 12.1 25.0°
Reaches altitude 10° 20:58:30 10° 239° (WSW) 6,127 12.0 24.8°
Maximum altitude 21:13:54 34° 185° (S) 3,706 11.6 23.8°
Drops below altitude 10° 21:24:49 10° 126° (SE) 4,346 10.5 23.1°
Sets 21:28:04 0° 117° (ESE) 4,988 10.7 22.9°
